Date String (YYYY-MM-DD hh:mm:ss) UTC,Instrument flags,absolute air pressure of the measurement (hPa),sample flow rate (lpm),inlet stack bypass flow (lpm),air temperature of the measurement (°C),ambient temperature measured by the external sensor (°C),aerosol sample conditioner tube jacket temperature (°C),OPC LED temperature (°C),internal box temperature (°C),relative humidity of the measurement (%),span deviation,mass concentration of particles derived from Lorenz-Mie calculation of OPC scattering (μg/m³),mass concentration of particles derived from Lorenz-Mie calculation of OPC scattering (μg/m³),mass concentration of particles derived from Lorenz-Mie calculation of OPC scattering (μg/m³)
DateTimeUTC,F1_M11,P_M11,Q1_M11,Q2_M11,T1_M11,T2_M11,T3_M11,T4_M11,T5_M11,U1_M11,ZSPAN_M11,X0_M11,X2_M11,X1_M11
2023-10-25 04:00:00,SystemResetWarning,0827.7,4.99,000.00,029.0,027.7,000.0,037.4,030.7,20.4,0000.0,0014.36,0005.36,0004.16
2023-10-25 04:01:00,SystemResetWarning,0827.7,5.00,000.00,029.0,027.7,000.0,037.4,030.7,20.1,0000.0,0014.26,0005.36,0004.14
2023-10-25 04:02:00,SystemResetWarning,0827.7,5.00,000.00,029.0,027.7,000.0,037.4,030.7,20.2,0000.0,0014.19,0005.37,0004.10
2023-10-25 04:03:00,SystemResetWarning,0827.7,5.01,000.00,029.0,027.7,000.0,037.4,030.7,20.1,0000.0,0014.48,0005.38,0004.07
2023-10-25 04:04:00,SystemResetWarning,0827.7,5.01,000.00,029.0,027.7,000.0,037.4,030.7,20.0,0000.0,0014.63,0005.35,0004.04
2023-10-25 04:05:00,SystemResetWarning,0827.7,5.01,000.00,029.0,027.7,000.0,037.4,030.7,20.0,0000.0,0014.64,0005.35,0004.02
2023-10-25 04:06:00,SystemResetWarning,0827.7,5.00,000.00,029.0,027.7,000.0,037.4,030.7,20.0,0000.0,0014.80,0005.37,0003.99
2023-10-25 04:07:00,SystemResetWarning,0827.7,5.00,000.00,029.1,027.7,000.0,037.4,030.7,20.1,0000.0,0014.86,0005.38,0003.98
2023-10-25 04:08:00,SystemResetWarning,0827.7,5.00,000.00,029.1,027.7,000.0,037.4,030.7,20.1,0000.0,0015.66,0005.38,0003.97
2023-10-25 04:09:00,SystemResetWarning,0827.7,5.00,000.00,029.1,027.7,000.0,037.4,030.7,20.1,0000.0,0014.49,0005.40,0003.93
2023-10-25 04:10:00,SystemResetWarning,0827.7,5.00,000.00,029.1,027.7,000.0,037.4,030.7,20.1,0000.0,0013.37,0005.38,0003.91
2023-10-25 04:11:00,SystemResetWarning,0827.7,5.00,000.00,029.1,027.7,000.0,037.5,030.7,19.7,0000.0,0012.66,0005.37,0003.90
2023-10-25 04:12:00,SystemResetWarning,0827.7,5.00,000.00,029.1,027.7,000.0,037.5,030.7,19.6,0000.0,0012.82,0005.36,0003.89
2023-10-25 04:13:00,SystemResetWarning,0827.7,5.00,000.00,029.1,027.7,000.0,037.5,030.7,19.6,0000.0,0013.20,0005.34,0003.88
2023-10-25 04:14:00,SystemResetWarning,0827.7,5.00,000.00,029.1,027.7,000.0,037.5,030.7,19.7,0000.0,0013.11,0005.32,0003.87
2023-10-25 04:15:00,SystemResetWarning,0827.7,4.99,000.00,029.1,027.7,000.0,037.5,030.7,19.6,0000.0,0013.06,0005.36,0003.87
2023-10-25 04:16:00,SystemResetWarning,0827.7,5.00,000.00,029.1,027.7,000.0,037.5,030.8,19.3,0000.0,0013.28,0005.38,0003.88
2023-10-25 04:17:00,SystemResetWarning,0827.7,5.00,000.00,029.1,027.7,000.0,037.5,030.7,19.0,0000.0,0013.24,0005.36,0003.89
2023-10-25 04:18:00,SystemResetWarning,0827.7,5.01,000.00,029.1,027.7,000.0,037.5,030.7,18.9,0000.0,0013.04,0005.36,0003.89
2023-10-25 04:19:00,SystemResetWarning,0827.7,5.00,000.00,029.1,027.7,000.0,037.5,030.7,18.9,0000.0,0012.32,0005.37,0003.90
2023-10-25 04:20:00,SystemResetWarning,0827.7,5.00,000.00,029.1,027.7,000.0,037.5,030.7,18.9,0000.0,0012.08,0005.36,0003.91
2023-10-25 04:21:00,SystemResetWarning,0827.7,5.01,000.00,029.1,027.7,000.0,037.5,030.8,18.7,0000.0,0012.55,0005.36,0003.92
2023-10-25 04:22:00,SystemResetWarning,0827.7,5.00,000.00,029.1,027.7,000.0,037.5,030.8,18.6,0000.0,0012.50,0005.31,0003.92
2023-10-25 04:23:00,SystemResetWarning,0827.7,5.00,000.00,029.1,027.7,000.0,037.5,030.8,18.6,0000.0,0012.21,0005.33,0003.91
2023-10-25 04:24:00,SystemResetWarning,0827.7,5.00,000.00,029.1,027.7,000.0,037.6,030.7,18.6,0000.0,0011.74,0005.35,0003.91
2023-10-25 04:25:00,SystemResetWarning,0827.7,5.00,000.00,029.1,027.7,000.0,037.6,030.8,18.6,0000.0,0011.68,0005.35,0003.91
2023-10-25 04:26:00,SystemResetWarning,0827.7,4.99,000.00,029.1,027.7,000.0,037.6,030.8,18.6,0000.0,0011.47,0005.32,0003.91
2023-10-25 04:27:00,SystemResetWarning,0827.7,5.00,000.00,029.1,027.7,000.0,037.6,030.8,18.5,0000.0,0011.22,0005.32,0003.91
2023-10-25 04:28:00,SystemResetWarning,0827.7,5.00,000.00,029.1,027.7,000.0,037.6,030.7,18.5,0000.0,0011.17,0005.34,0003.90
2023-10-25 04:29:00,SystemResetWarning,0827.7,5.00,000.00,029.1,027.7,000.0,037.6,030.7,18.5,0000.0,0011.41,0005.33,0003.90
2023-10-25 04:30:00,SystemResetWarning,0827.7,4.99,000.00,029.1,027.7,000.0,037.6,030.8,18.4,0000.0,0011.51,0005.25,0003.89
2023-10-25 04:31:00,SystemResetWarning,0827.7,5.00,000.00,029.1,027.7,000.0,037.6,030.8,18.4,0000.0,0011.57,0005.23,0003.89
2023-10-25 04:32:00,SystemResetWarning,0827.7,5.00,000.00,029.1,027.7,000.0,037.6,030.8,18.4,0000.0,0011.50,0005.23,0003.89
2023-10-25 04:33:00,SystemResetWarning,0827.7,5.00,000.00,029.1,027.7,000.0,037.6,030.8,18.3,0000.0,0011.57,0005.25,0003.89
2023-10-25 04:34:00,SystemResetWarning,0827.7,5.00,000.00,029.1,027.7,000.0,037.6,030.8,18.4,0000.0,0011.67,0005.20,0003.90
2023-10-25 04:35:00,SystemResetWarning,0827.7,5.00,000.00,029.1,027.8,000.0,037.6,030.8,18.4,0000.0,0011.75,0005.21,0003.91
2023-10-25 04:36:00,SystemResetWarning,0827.7,5.00,000.00,029.2,027.8,000.0,037.6,030.8,18.3,0000.0,0012.33,0005.22,0003.91
2023-10-25 04:37:00,SystemResetWarning,0827.7,5.00,000.00,029.2,027.7,000.0,037.6,030.8,18.3,0000.0,0013.36,0005.20,0003.91
2023-10-25 04:38:00,SystemResetWarning,0827.7,5.01,000.00,029.2,027.7,000.0,037.6,030.8,18.3,0000.0,0013.95,0005.28,0003.91
2023-10-25 04:39:00,SystemResetWarning,0827.7,5.01,000.00,029.2,027.7,000.0,037.6,030.8,18.3,0000.0,0014.24,0005.32,0003.92
2023-10-25 04:40:00,SystemResetWarning,0827.7,5.01,000.00,029.2,027.7,000.0,037.6,030.8,18.3,0000.0,0013.97,0005.28,0003.91
2023-10-25 04:41:00,SystemResetWarning,0827.7,5.00,000.00,029.2,027.7,000.0,037.6,030.8,18.2,0000.0,0014.41,0005.35,0003.92
2023-10-25 04:42:00,SystemResetWarning,0827.7,5.00,000.00,029.2,027.7,000.0,037.6,030.8,18.1,0000.0,0014.98,0005.36,0003.92
2023-10-25 04:43:00,SystemResetWarning,0827.7,5.00,000.00,029.2,027.7,000.0,037.6,030.8,18.1,0000.0,0015.13,0005.37,0003.92
2023-10-25 04:44:00,SystemResetWarning,0827.7,5.00,000.00,029.2,027.7,000.0,037.6,030.8,18.1,0000.0,0015.39,0005.41,0003.90
2023-10-25 04:45:00,SystemResetWarning,0827.7,5.00,000.00,029.2,027.7,000.0,037.6,030.8,18.2,0000.0,0015.49,0005.46,0003.89
2023-10-25 04:46:00,SystemResetWarning,0827.7,5.00,000.00,029.2,027.7,000.0,037.6,030.8,18.3,0000.0,0015.55,0005.45,0003.88
2023-10-25 04:47:00,SystemResetWarning,0827.7,5.00,000.00,029.2,027.7,000.0,037.6,030.8,18.3,0000.0,0015.00,0005.43,0003.88
2023-10-25 04:48:00,SystemResetWarning,0827.7,5.00,000.00,029.2,027.7,000.0,037.6,030.8,18.1,0000.0,0014.26,0005.45,0003.89
2023-10-25 04:49:00,SystemResetWarning,0827.8,5.00,000.00,029.2,027.7,000.0,037.6,030.8,18.0,0000.0,0013.94,0005.41,0003.88
2023-10-25 04:50:00,SystemResetWarning,0827.8,5.00,000.00,029.2,027.7,000.0,037.6,030.8,17.9,0000.0,0013.77,0005.36,0003.87
2023-10-25 04:51:00,SystemResetWarning,0827.8,5.00,000.00,029.2,027.7,000.0,037.6,030.8,17.9,0000.0,0014.32,0005.37,0003.87
2023-10-25 04:52:00,SystemResetWarning,0827.7,4.99,000.00,029.2,027.7,000.0,037.6,030.8,18.0,0000.0,0013.99,0005.33,0003.86
2023-10-25 04:53:00,SystemResetWarning,0827.8,5.00,000.00,029.2,027.7,000.0,037.7,030.8,18.1,0000.0,0013.15,0005.31,0003.85
2023-10-25 04:54:00,SystemResetWarning,0827.9,5.00,000.00,029.2,027.7,000.0,037.6,030.8,18.3,0000.0,0012.67,0005.32,0003.86
2023-10-25 04:55:00,SystemResetWarning,0827.9,5.00,000.00,029.2,027.7,000.0,037.6,030.8,18.4,0000.0,0012.41,0005.33,0003.88
2023-10-25 04:56:00,SystemResetWarning,0827.9,5.01,000.00,029.2,027.7,000.0,037.6,030.8,18.2,0000.0,0012.27,0005.34,0003.89
2023-10-25 04:57:00,SystemResetWarning,0827.8,5.00,000.00,029.2,027.7,000.0,037.6,030.8,18.3,0000.0,0012.25,0005.33,0003.91
2023-10-25 04:58:00,SystemResetWarning,0827.9,5.00,000.00,029.2,027.7,000.0,037.6,030.8,18.3,0000.0,0012.20,0005.32,0003.93
2023-10-25 04:59:00,SystemResetWarning,0828.0,5.00,000.00,029.2,027.7,000.0,037.6,030.8,18.0,0000.0,0012.00,0005.32,0003.92
